Temperature
16 16 16 16 16 16 16 16 17 17 17 17 17 17 17 17 17 17 17 17 17 17 17 17 16 16 16 16 16 16 16 16 16 16 16 16 15 15 15 15 15 15 15
15 16 16 16 16 16 16 16 16 16 16 17 17 17 17 16 16 17 17 17 17 17 16 16 16 16 16 16 16 16 16 16 16 16 15 15 15 15 15 15 15 14 15
15 15 16 16 16 16 16 16 16 16 16 16 16 16 16 16 16 16 16 17 16 16 16 16 16 16 16 16 16 16 16 16 16 15 15 14 15 15 15 15 15 15 15
15 15 15 16 16 16 16 16 16 16 16 16 16 16 16 16 16 16 16 16 16 16 16 16 16 16 16 16 16 16 16 16 16 15 15 14 14 15 15 15 15 15 14
15 15 15 16 16 16 16 16 16 16 16 16 16 16 16 16 16 16 16 16 16 16 16 16 16 16 16 16 16 15 16 16 15 15 14 14 14 14 15 15 14 14 14
15 15 15 15 15 16 16 16 16 16 16 16 16 16 16 16 16 16 16 16 16 16 16 15 15 15 15 15 15 15 15 15 15 14 14 14 14 14 14 14 14 14 14
14 15 15 15 15 15 15 15 15 16 16 16 16 16 15 16 16 16 16 16 16 15 15 15 15 15 15 15 15 15 15 15 15 14 14 14 14 14 14 14 14 14 14
14 14 15 15 15 15 15 15 15 15 15 15 15 15 15 15 15 15 15 15 15 15 15 15 15 15 15 15 15 15 15 15 14 14 14 14 14 14 14 14 14 14 14
14 14 14 15 15 15 15 15 15 15 15 15 15 15 15 15 15 15 15 15 15 15 15 15 15 15 15 15 15 15 15 14 14 14 14 14 14 14 14 14 14 14 13
14 14 14 14 14 14 14 14 14 14 14 14 14 14 14 14 14 14 14 14 14 14 14 14 14 14 14 14 14 14 14 14 14 14 14 13 14 13 13 13 13 13 13
14 14 14 14 14 14 14 14 14 14 14 14 14 14 14 14 14 14 14 14 14 14 14 14 14 14 14 14 14 14 14 14 13 13 13 13 13 13 13 13 13 13 13
14 14 14 13 13 13 13 13 14 14 14 14 14 14 14 14 14 14 14 14 14 14 14 14 14 14 13 13 13 13 13 13 13 13 13 13 13 13 13 13 13 13 13
13 13 13 13 13 13 13 13 13 13 13 13 13 13 13 13 13 13 13 13 13 13 13 13 13 13 13 13 13 13 13 13 13 13 13 13 13 13 13 13 13 13 12
13 13 13 13 13 13 13 13 13 13 13 13 13 13 13 13 13 13 12 12 12 12 13 12 12 12 12 12 12 12 12 12 12 12 12 12 12 12 12 12 12 12 12
13 13 13 13 12 12 12 12 12 12 12 12 12 12 12 12 12 12 12 12 12 12 12 12 12 12 12 12 12 12 12 12 12 11 12 12 12 12 12 12 12 12 12
12 12 12 12 12 12 12 12 12 12 12 12 12 12 12 12 12 11 11 11 11 11 11 11 11 11 11 11 11 11 11 11 11 11 11 11 11 11 11 11 11 11 11
12 12 12 12 12 12 12 12 11 11 11 11 11 11 11 11 11 11 11 11 10 10 10 10 10 10 10 10 10 10 10 10 10 10 10 10 10 11 11 11 11 11 11
12 12 12 12 11 11 11 11 11 11 11 11 11 11 11 11 10 10 10 10 10 10 10 10 9 9 9 9 9 9 9 10 10 10 10 10 10 10 10 10 10 10 10
12 12 12 11 11 11 11 11 11 11 10 10 10 10 10 10 10 10 10 9 9 9 9 9 8 8 8 8 8 8 8 9 9 9 9 9 9 9 9 9 9 9 9
11 11 11 11 11 11 10 10 10 10 10 10 10 10 10 10 9 9 9 9 9 8 8 8 8 8 8 7 7 7 8 8 8 8 8 8 8 8 8 8 8 8 9
11 11 11 11 11 10 10 10 10 10 10 9 9 9 9 9 9 9 9 8 8 8 8 7 7 7 7 7 7 7 7 7 7 7 7 7 7 8 8 8 8 8 8
11 11 11 10 10 10 10 10 10 9 9 9 9 9 9 9 8 8 8 8 8 7 7 7 7 7 6 6 6 6 6 7 7 7 7 7 7 7 7 7 7 7 7
11 11 11 10 10 10 10 9 9 9 9 9 9 9 8 8 8 8 8 8 7 7 7 7 6 6 6 6 5 5 5 6 6 6 6 6 6 6 6 6 6 6 6
11 11 10 10 10 9 9 9 9 9 8 8 8 8 8 8 8 7 7 7 7 7 6 6 6 6 5 5 5 5 5 5 5 5 5 6 6 6 6 6 6 6 6
10 10 10 10 9 9 9 9 9 8 8 8 8 8 7 7 7 7 7 7 6 6 6 6 6 5 5 5 4 4 4 4 4 4 5 5 5 5 5 5 5 5 5
10 10 10 9 9 9 9 8 8 8 8 8 7 7 7 7 7 7 6 6 6 6 5 5 5 5 5 4 4 4 4 4 4 4 4 4 4 5 5 4 4 5 5
Wind_Speed
5 5 6 7 9 9 10 10 10 10 10 10 10 9 9 9 8 7 7 7 6 6 6 5 5 5 5 5 5 5 4 5 4 4 3 3 3 4 4 4 3 4 5
6 7 8 8 9 10 10 11 10 10 10 10 10 9 9 9 9 8 7 6 6 5 5 5 5 5 5 5 5 4 4 4 4 3 3 3 3 3 3 3 2 3 5
7 8 9 9 10 11 11 11 11 10 10 10 10 10 9 9 9 8 8 7 6 5 5 4 4 4 4 4 4 4 3 3 3 2 3 3 4 4 3 3 3 3 4
8 8 9 10 10 11 11 11 11 11 10 9 9 9 9 9 9 8 8 8 7 6 5 4 4 4 4 4 4 3 2 2 2 3 3 2 2 4 3 4 4 4 4
8 9 10 10 11 11 11 11 11 11 11 11 10 10 10 10 9 9 9 8 8 7 6 6 5 4 4 4 3 3 2 2 1 4 2 2 2 3 3 4 4 5 5
9 9 11 11 11 11 11 11 11 11 11 11 11 11 10 10 10 9 9 9 9 8 8 7 6 5 4 3 3 2 2 1 3 3 3 3 3 2 3 4 4 6 6
9 9 11 11 11 11 11 10 10 10 10 10 10 11 11 10 10 10 10 9 9 9 8 8 7 6 5 3 2 1 1 1 3 2 2 2 2 1 4 5 5 6 7
9 9 10 11 11 11 11 11 10 10 10 10 10 10 10 10 10 10 10 9 9 9 9 8 7 7 7 6 4 2 1 2 3 3 3 3 2 2 4 5 5 7 8
8 8 8 9 10 11 11 11 11 10 10 10 10 10 10 10 10 10 9 9 9 8 8 8 7 7 6 6 5 4 3 3 4 3 3 3 2 4 5 5 6 6 7
7 7 7 7 7 8 9 11 11 11 10 10 9 9 9 8 9 9 8 9 8 8 7 7 7 6 5 5 6 5 4 3 4 4 3 3 3 5 6 7 7 8 8
7 6 6 6 6 7 7 8 9 9 8 7 7 7 5 5 5 6 8 8 7 7 7 6 6 5 4 3 4 4 2 3 3 3 4 4 5 6 7 7 8 8 9
7 6 5 6 6 6 6 5 5 5 6 5 4 4 4 4 4 4 5 6 6 5 5 5 5 4 3 3 3 2 3 4 3 3 4 5 6 7 8 8 8 9 10
8 6 5 5 5 5 4 4 4 4 4 5 5 4 4 3 3 3 3 3 3 3 3 3 3 3 3 3 3 3 4 4 3 4 4 5 7 8 8 9 10 10 11
8 7 6 5 5 4 4 4 3 3 3 3 4 3 3 3 2 3 3 3 3 3 3 3 3 3 3 3 3 4 4 4 4 4 4 5 8 9 10 10 10 11 11
9 8 7 6 5 4 4 3 3 2 2 3 3 3 3 2 2 2 2 2 3 3 3 3 3 3 3 4 4 4 4 5 5 6 5 5 8 10 10 11 11 12 12
9 8 7 6 5 4 3 3 2 2 2 2 2 2 2 2 2 1 2 2 2 3 3 3 3 3 3 3 4 5 5 5 6 7 7 6 8 9 10 11 12 12 13
9 8 7 6 5 5 4 3 2 2 2 1 2 2 2 2 1 1 1 1 2 3 3 3 4 3 3 4 5 5 5 6 6 7 7 7 7 8 10 11 12 13 13
9 9 7 6 6 5 4 3 2 2 2 1 1 1 1 1 2 1 1 2 2 3 3 3 3 4 4 4 5 5 6 6 7 7 7 7 7 7 8 10 12 13 14
10 9 8 7 6 5 4 3 2 2 2 1 1 0 0 1 1 2 2 2 3 2 3 3 4 4 5 5 6 6 6 7 7 7 7 7 7 8 8 9 11 13 14
9 9 8 7 7 6 4 3 2 2 1 1 1 0 1 1 2 2 2 3 3 3 3 3 4 5 5 6 7 7 7 7 7 7 7 7 7 8 9 10 10 10 12
9 9 8 8 7 5 4 4 3 2 2 1 1 1 1 2 2 2 2 3 3 3 4 5 5 6 5 5 6 7 8 8 7 7 7 7 8 9 9 10 9 9 10
10 9 9 8 7 6 4 3 2 2 2 2 2 2 2 2 3 3 3 3 4 4 4 5 5 5 5 4 5 7 6 7 6 7 7 8 9 8 9 10 10 10 11
10 10 8 8 8 7 5 3 2 2 2 2 2 2 2 3 3 4 4 4 4 5 5 5 5 6 6 6 5 5 6 7 9 7 8 8 9 9 9 10 11 12 12
10 9 8 8 7 6 5 4 4 4 4 4 3 3 4 4 4 5 5 5 6 5 6 6 6 6 7 7 6 6 8 8 8 8 7 9 10 11 11 10 11 12 13
9 8 7 7 6 6 5 5 5 4 4 3 3 4 5 4 5 5 6 6 7 6 7 7 7 7 7 8 8 8 9 9 10 10 12 11 10 10 10 11 11 11 12
7 7 6 7 6 5 5 5 5 5 5 4 5 5 5 5 5 6 7 7 8 7 8 8 8 9 9 10 9 9 9 9 9 10 12 13 12 11 11 10 11 11 11
Wind_Direction
129 117 92 96 100 96 94 94 92 91 94 96 96 97 94 94 95 98 104 108 109 109 105 104 101 101 101 102 102 104 106 106 103 106 108 117 127 131 130 135 152 139 113
126 119 103 98 99 96 93 92 91 90 92 93 93 94 95 93 90 90 92 96 103 105 102 98 98 101 96 99 104 104 106 113 112 111 127 152 150 150 145 153 180 110 123
120 115 114 98 97 96 92 90 90 90 90 91 91 89 90 90 87 84 83 86 90 93 97 95 97 101 96 99 101 101 102 113 131 140 198 192 163 158 159 161 168 164 161
115 111 105 100 97 97 94 92 89 88 89 90 91 90 88 85 84 81 78 77 79 81 82 83 84 85 89 91 90 89 100 115 141 202 213 202 182 151 179 185 185 183 181
113 107 97 96 96 97 96 94 91 88 85 84 85 86 85 82 80 78 74 72 69 69 71 71 71 74 83 86 84 77 78 104 173 234 239 237 226 159 199 205 199 198 198
113 107 99 94 95 94 95 95 93 89 86 84 80 81 82 80 77 73 70 69 66 64 63 63 62 60 65 70 81 82 73 71 234 252 251 248 245 194 225 220 216 215 212
113 103 102 94 93 93 93 94 94 91 88 84 80 78 77 76 74 70 67 66 64 61 60 61 58 55 52 51 59 66 57 290 266 275 276 269 271 239 240 239 234 230 227
114 106 103 95 91 91 90 90 91 90 89 85 81 78 76 75 73 71 66 63 62 60 59 58 56 52 48 42 37 27 359 271 263 269 273 283 317 271 254 253 249 242 240
116 112 106 104 98 90 85 86 87 87 87 85 83 79 76 76 73 69 65 62 60 59 58 56 52 49 46 40 33 26 7 284 269 281 281 289 313 276 264 264 262 256 253
115 113 110 106 100 98 92 83 82 82 83 85 83 81 80 81 75 67 63 57 55 54 53 50 47 42 39 39 33 21 359 293 279 278 278 302 319 288 276 270 267 264 262
121 118 115 111 105 99 93 90 87 84 80 85 85 82 83 78 74 70 58 54 53 53 49 43 38 32 23 39 33 10 330 317 306 297 296 331 309 290 286 281 278 272 267
146 133 123 118 112 105 96 94 88 84 81 76 78 78 78 75 67 66 71 59 55 54 51 40 32 27 7 1 9 349 332 322 314 308 321 340 310 296 288 285 285 281 274
154 143 135 127 121 114 105 97 90 87 83 77 71 77 82 79 68 56 55 52 43 38 30 22 16 15 3 359 342 331 331 325 319 319 324 331 310 304 297 294 289 285 281
160 154 147 141 132 120 112 104 99 96 89 80 70 58 69 72 57 48 44 35 27 22 11 3 355 355 346 342 334 324 322 317 311 308 316 315 303 300 295 294 293 292 289
168 162 156 151 144 133 121 110 101 93 91 88 75 57 52 65 55 45 39 33 22 12 4 350 344 344 335 334 329 318 311 306 302 302 301 298 293 294 293 292 292 291 288
174 169 161 160 152 143 137 128 112 106 99 84 75 58 46 58 55 32 31 21 11 5 356 343 337 328 321 319 312 308 300 297 294 296 295 289 282 286 289 290 291 290 289
178 171 166 163 160 154 147 139 130 124 116 95 83 65 49 39 37 28 6 359 357 349 344 340 336 327 319 311 305 302 295 289 288 287 289 290 285 281 283 287 291 292 291
180 175 169 168 169 165 155 150 142 140 133 121 102 70 44 28 6 350 342 339 338 336 334 328 325 323 316 306 300 297 291 288 282 285 287 287 287 286 283 283 288 290 291
185 179 175 174 173 169 160 154 151 149 152 159 160 90 4 340 329 333 335 323 320 321 322 320 320 317 311 307 299 293 290 285 280 279 279 281 283 283 285 285 283 284 288
187 182 179 175 174 167 164 159 156 163 177 188 202 237 287 313 318 315 311 314 315 308 312 314 314 311 306 305 300 293 286 281 275 272 277 278 279 280 283 286 284 280 281
184 183 182 180 176 172 171 176 183 188 200 212 223 247 269 293 306 304 299 303 304 302 302 303 304 304 305 311 305 301 291 274 273 273 275 281 284 282 282 282 284 286 285
185 185 183 184 182 183 185 187 197 198 220 233 240 249 264 277 287 291 292 292 291 289 288 292 302 300 305 309 307 309 301 290 275 279 278 278 281 282 282 282 281 283 285
188 188 187 187 187 188 185 175 171 201 219 228 236 250 266 277 275 277 282 284 284 282 282 284 287 288 295 295 291 291 295 292 306 280 280 279 280 282 282 282 281 281 281
189 185 187 186 187 187 187 194 200 218 235 250 255 262 271 271 273 274 275 278 278 279 278 279 281 283 283 283 280 270 273 283 288 292 284 281 284 283 284 284 283 283 281
183 181 184 184 187 189 196 201 213 230 244 253 259 264 273 274 274 275 276 276 277 277 278 279 279 278 275 275 277 276 276 276 269 277 287 290 287 283 284 284 282 282 281
177 176 179 182 188 192 201 210 221 232 244 253 261 268 272 274 274 273 275 275 274 275 276 276 275 272 270 270 270 268 271 271 273 275 282 287 288 289 287 283 281 281 280
Height
1513 1513 1514 1515 1516 1517 1518 1518 1519 1519 1519 1520 1520 1520 1521 1521 1521 1521 1521 1521 1521 1521 1521 1521 1521 1521 1521 1520 1520 1519 1519 1519 1519 1519 1518 1518 1518 1518 1518 1518 1518 1518 1517
1512 1513 1514 1515 1517 1517 1518 1519 1519 1519 1520 1520 1520 1521 1521 1521 1521 1521 1521 1521 1521 1521 1521 1521 1521 1521 1521 1520 1520 1520 1519 1519 1519 1519 1518 1518 1518 1518 1518 1518 1518 1518 1517
1512 1514 1514 1516 1517 1518 1518 1519 1519 1520 1520 1520 1520 1521 1521 1521 1521 1521 1521 1521 1521 1521 1521 1521 1521 1521 1520 1520 1520 1520 1519 1519 1519 1519 1518 1519 1518 1518 1518 1518 1518 1517 1517
1512 1514 1515 1516 1517 1518 1518 1519 1519 1520 1520 1520 1520 1521 1521 1521 1521 1521 1521 1521 1521 1521 1521 1521 1520 1520 1520 1520 1520 1519 1519 1519 1518 1518 1519 1519 1519 1518 1518 1517 1517 1517 1517
1513 1514 1515 1516 1517 1518 1518 1519 1519 1520 1520 1520 1520 1520 1520 1520 1520 1521 1520 1520 1520 1520 1520 1520 1520 1520 1519 1519 1519 1519 1518 1518 1518 1518 1518 1518 1518 1517 1517 1517 1516 1516 1516
1513 1514 1515 1516 1517 1518 1518 1519 1519 1519 1519 1520 1520 1520 1520 1520 1520 1520 1520 1520 1520 1520 1519 1519 1519 1519 1519 1518 1518 1518 1518 1517 1517 1518 1517 1517 1517 1516 1516 1516 1515 1515 1515
1513 1515 1515 1516 1517 1518 1518 1518 1519 1519 1519 1519 1519 1519 1519 1519 1519 1519 1519 1519 1519 1519 1518 1518 1518 1518 1517 1517 1517 1517 1516 1516 1516 1516 1516 1516 1515 1515 1514 1514 1514 1513 1513
1513 1514 1515 1516 1517 1517 1518 1518 1518 1518 1519 1519 1519 1519 1518 1518 1518 1518 1518 1518 1518 1517 1517 1517 1517 1516 1516 1516 1515 1515 1515 1515 1515 1515 1514 1514 1513 1513 1513 1512 1512 1512 1511
1513 1514 1515 1516 1516 1517 1517 1517 1518 1518 1518 1518 1518 1518 1518 1518 1517 1517 1517 1517 1516 1516 1516 1515 1515 1515 1514 1514 1514 1513 1513 1513 1513 1513 1512 1512 1511 1511 1510 1510 1510 1509 1509
1512 1514 1515 1515 1516 1516 1516 1517 1517 1517 1517 1517 1517 1517 1517 1516 1516 1516 1516 1515 1515 1514 1514 1514 1513 1513 1513 1512 1512 1511 1511 1511 1511 1510 1510 1509 1508 1508 1508 1507 1507 1507 1506
1512 1513 1514 1515 1515 1516 1516 1516 1516 1516 1516 1516 1516 1516 1516 1515 1515 1515 1514 1514 1513 1513 1512 1512 1511 1511 1511 1510 1510 1509 1509 1509 1508 1508 1507 1506 1506 1505 1505 1504 1504 1504 1503
1511 1512 1513 1514 1514 1515 1515 1515 1515 1515 1515 1515 1515 1515 1514 1514 1514 1513 1513 1512 1512 1511 1511 1510 1510 1509 1509 1508 1507 1507 1506 1506 1506 1505 1504 1503 1503 1502 1502 1501 1500 1500 1500
1510 1511 1512 1513 1513 1514 1514 1514 1514 1514 1514 1514 1514 1513 1513 1513 1513 1512 1512 1511 1510 1510 1509 1508 1508 1507 1506 1506 1505 1504 1504 1503 1502 1501 1501 1500 1499 1499 1498 1497 1497 1496 1496
1508 1509 1510 1511 1512 1513 1513 1513 1513 1513 1513 1513 1513 1512 1512 1512 1511 1511 1510 1509 1509 1508 1507 1507 1506 1505 1504 1503 1502 1502 1501 1500 1499 1498 1497 1496 1495 1495 1494 1493 1493 1492 1491
1506 1508 1509 1510 1511 1511 1512 1512 1512 1512 1512 1512 1511 1511 1511 1510 1510 1509 1508 1508 1507 1506 1505 1505 1504 1503 1502 1501 1500 1499 1498 1497 1496 1495 1493 1492 1491 1490 1490 1489 1488 1487 1487
1504 1506 1507 1508 1509 1510 1510 1511 1511 1511 1511 1511 1510 1510 1509 1509 1508 1507 1506 1506 1505 1504 1503 1502 1502 1500 1499 1498 1497 1496 1495 1494 1492 1491 1490 1488 1487 1486 1485 1484 1483 1482 1482
1502 1504 1505 1506 1507 1508 1509 1509 1509 1509 1509 1509 1509 1508 1508 1507 1506 1505 1504 1503 1503 1502 1501 1500 1499 1498 1497 1495 1494 1493 1492 1490 1489 1487 1486 1484 1483 1482 1480 1479 1478 1477 1476
1500 1501 1503 1504 1505 1506 1507 1507 1508 1508 1508 1507 1507 1506 1506 1505 1504 1503 1502 1501 1500 1500 1498 1497 1496 1495 1494 1492 1491 1489 1488 1486 1484 1483 1482 1480 1479 1477 1476 1474 1473 1472 1471
1497 1499 1500 1502 1503 1504 1505 1505 1506 1506 1506 1505 1505 1504 1504 1503 1502 1501 1500 1499 1498 1497 1496 1495 1494 1492 1491 1489 1487 1485 1484 1482 1480 1479 1477 1476 1475 1473 1472 1470 1468 1467 1466
1494 1496 1497 1499 1500 1501 1502 1503 1503 1503 1504 1503 1503 1502 1501 1501 1500 1499 1497 1496 1495 1494 1493 1492 1491 1489 1488 1486 1484 1482 1479 1478 1475 1474 1473 1472 1470 1469 1467 1465 1463 1462 1460
1490 1492 1494 1496 1497 1498 1499 1500 1501 1501 1501 1501 1500 1500 1499 1498 1497 1496 1495 1493 1492 1491 1490 1489 1488 1486 1484 1483 1480 1478 1475 1474 1471 1469 1468 1467 1466 1464 1462 1460 1458 1457 1455
1485 1488 1490 1492 1494 1496 1497 1498 1498 1498 1498 1498 1497 1497 1496 1495 1494 1493 1492 1491 1489 1488 1487 1486 1484 1482 1481 1480 1478 1475 1472 1470 1467 1466 1464 1462 1460 1459 1457 1455 1454 1451 1449
1481 1484 1486 1489 1491 1493 1494 1495 1495 1495 1495 1495 1494 1493 1493 1492 1491 1490 1489 1488 1486 1485 1483 1482 1481 1479 1478 1477 1476 1475 1472 1466 1463 1460 1459 1457 1455 1454 1452 1450 1448 1446 1444
1477 1481 1483 1485 1488 1489 1490 1491 1492 1492 1492 1491 1491 1490 1489 1488 1487 1486 1485 1484 1482 1481 1479 1478 1477 1475 1474 1472 1471 1470 1469 1465 1462 1456 1454 1452 1451 1449 1447 1445 1442 1440 1438
1474 1477 1480 1482 1484 1486 1487 1488 1488 1489 1488 1488 1487 1486 1485 1484 1483 1482 1481 1479 1478 1477 1475 1474 1472 1471 1469 1468 1466 1465 1463 1461 1459 1455 1449 1446 1445 1443 1441 1439 1437 1434 1432
1471 1473 1476 1478 1480 1482 1483 1484 1485 1485 1485 1484 1483 1482 1481 1480 1478 1477 1476 1475 1473 1472 1470 1468 1467 1465 1464 1462 1461 1459 1457 1456 1453 1451 1446 1441 1438 1435 1434 1433 1430 1428 1426